DAL2121 KMSP-KSAN

Flight info

Callsign DAL2121
Flight time N/A
Altitude 34000
Route SCHEP1 RXANN TEYOU ONL J114 NARLY KD69Y SNY GLL DBL DVC TBC PLNDL Q86 TTRUE LUCKI1
Aircraft A321/M-SDE3FGHIRWY/LB1

Departure

Time 2026-05-01 14:02
Airport Minneapolis–Saint Paul International Airport / Wold–Chamberlain Field (KMSP)

Arrival

Time N/A
Airport San Diego International Airport (KSAN)
Time Latitude Longitude Altitude Speed Heading
2026-05-01 13:07 44.88330 -93.21635 825 ft 0 kts 51°
2026-05-01 13:51 44.88325 -93.21644 823 ft 4 kts 52°
2026-05-01 13:51 44.88309 -93.21674 825 ft 4 kts 49°
2026-05-01 13:51 44.88291 -93.21702 825 ft 4 kts 53°
2026-05-01 13:51 44.88278 -93.21734 825 ft 4 kts 77°
2026-05-01 13:52 44.88278 -93.21766 825 ft 2 kts 120°
2026-05-01 13:52 44.88278 -93.21767 825 ft 0 kts 121°
2026-05-01 13:54 44.88276 -93.21762 825 ft 3 kts 121°
2026-05-01 13:55 44.88262 -93.21729 822 ft 4 kts 121°
2026-05-01 13:55 44.88243 -93.21685 825 ft 7 kts 122°
2026-05-01 13:55 44.88213 -93.21617 822 ft 8 kts 122°
2026-05-01 13:55 44.88186 -93.21557 824 ft 7 kts 122°
2026-05-01 13:56 44.88164 -93.21509 825 ft 5 kts 131°
2026-05-01 13:56 44.88139 -93.21487 825 ft 4 kts 148°
2026-05-01 13:56 44.88109 -93.21469 825 ft 9 kts 157°
2026-05-01 13:56 44.88048 -93.21417 824 ft 10 kts 138°
2026-05-01 13:57 44.88003 -93.21327 823 ft 16 kts 122°
2026-05-01 13:57 44.87934 -93.21169 825 ft 19 kts 122°
2026-05-01 13:57 44.87866 -93.21015 826 ft 17 kts 121°
2026-05-01 13:57 44.87805 -93.20877 824 ft 16 kts 122°
2026-05-01 13:58 44.87750 -93.20748 823 ft 16 kts 120°
2026-05-01 13:58 44.87683 -93.20586 824 ft 20 kts 120°
2026-05-01 13:58 44.87615 -93.20427 821 ft 18 kts 120°
2026-05-01 13:58 44.87553 -93.20280 825 ft 17 kts 121°
2026-05-01 13:59 44.87503 -93.20168 826 ft 1 kts 122°
2026-05-01 13:59 44.87502 -93.20168 826 ft 0 kts 122°
2026-05-01 14:00 44.87496 -93.20154 826 ft 6 kts 123°
2026-05-01 14:00 44.87468 -93.20094 826 ft 9 kts 128°
2026-05-01 14:00 44.87406 -93.20092 827 ft 9 kts 205°
2026-05-01 14:00 44.87368 -93.20140 827 ft 7 kts 251°
2026-05-01 14:01 44.87384 -93.20193 826 ft 7 kts 302°
2026-05-01 14:01 44.87469 -93.20389 824 ft 57 kts 302°
2026-05-01 14:01 44.87800 -93.21157 824 ft 123 kts 301°
2026-05-01 14:01 44.88340 -93.22408 829 ft 172 kts 301°
2026-05-01 14:02 44.88962 -93.23865 1452 ft 170 kts 303°
2026-05-01 14:02 44.89513 -93.25336 2139 ft 171 kts 288°
2026-05-01 14:02 44.89560 -93.27031 2666 ft 180 kts 265°
2026-05-01 14:02 44.89357 -93.28876 2825 ft 201 kts 261°
2026-05-01 14:03 44.89072 -93.30913 2972 ft 222 kts 260°
2026-05-01 14:03 44.88743 -93.33153 3179 ft 245 kts 260°
2026-05-01 14:03 44.88388 -93.35574 3690 ft 257 kts 260°
2026-05-01 14:03 44.87805 -93.37974 4410 ft 263 kts 240°
2026-05-01 14:04 44.86612 -93.39906 5133 ft 268 kts 225°
2026-05-01 14:04 44.85248 -93.41716 5900 ft 270 kts 225°
2026-05-01 14:04 44.83865 -93.43531 6634 ft 273 kts 225°
2026-05-01 14:04 44.82468 -93.45365 7351 ft 276 kts 225°
2026-05-01 14:05 44.81053 -93.47223 8038 ft 279 kts 225°
2026-05-01 14:05 44.79626 -93.49098 8719 ft 282 kts 225°
2026-05-01 14:05 44.78182 -93.50996 9387 ft 285 kts 225°
2026-05-01 14:05 44.76726 -93.52912 10033 ft 288 kts 226°
2026-05-01 14:06 44.75229 -93.54883 10339 ft 305 kts 226°
2026-05-01 14:06 44.73634 -93.56989 10604 ft 321 kts 226°
2026-05-01 14:06 44.71987 -93.59156 11169 ft 326 kts 226°
2026-05-01 14:06 44.70345 -93.61379 11789 ft 328 kts 231°
2026-05-01 14:07 44.68925 -93.63889 12397 ft 329 kts 237°
2026-05-01 14:07 44.67577 -93.66498 13030 ft 331 kts 237°
2026-05-01 14:07 44.66211 -93.69129 13644 ft 335 kts 237°
2026-05-01 14:08 44.63440 -93.74448 14804 ft 340 kts 237°
2026-05-01 14:08 44.62054 -93.77108 15368 ft 343 kts 237°
2026-05-01 14:08 44.60639 -93.79822 15914 ft 346 kts 237°
2026-05-01 14:08 44.59215 -93.82554 16456 ft 349 kts 237°
2026-05-01 14:09 44.57778 -93.85309 16983 ft 352 kts 237°
2026-05-01 14:09 44.56327 -93.88086 17510 ft 354 kts 237°
2026-05-01 14:09 44.54863 -93.90885 18019 ft 357 kts 237°
2026-05-01 14:09 44.53385 -93.93701 18523 ft 360 kts 237°
2026-05-01 14:10 44.51893 -93.96541 19002 ft 363 kts 237°
2026-05-01 14:10 44.50395 -93.99398 19467 ft 366 kts 237°
2026-05-01 14:10 44.48884 -94.02283 19928 ft 369 kts 237°
2026-05-01 14:10 44.47357 -94.05190 20369 ft 372 kts 237°
2026-05-01 14:11 44.45796 -94.08157 20506 ft 384 kts 237°
2026-05-01 14:11 44.42563 -94.14308 20762 ft 405 kts 236°
2026-05-01 14:11 44.40876 -94.17514 20963 ft 413 kts 236°
2026-05-01 14:12 44.39160 -94.20759 21301 ft 416 kts 236°
2026-05-01 14:12 44.37431 -94.24020 21673 ft 419 kts 236°
2026-05-01 14:12 44.35688 -94.27302 22047 ft 422 kts 236°
2026-05-01 14:12 44.33932 -94.30604 22415 ft 424 kts 236°
2026-05-01 14:13 44.32168 -94.33920 22770 ft 427 kts 236°
2026-05-01 14:13 44.30992 -94.36129 22997 ft 429 kts 236°
2026-05-01 14:13 44.28603 -94.40614 23463 ft 432 kts 236°
2026-05-01 14:13 44.26802 -94.43983 23787 ft 434 kts 236°
2026-05-01 14:14 44.24992 -94.47369 24108 ft 437 kts 236°
2026-05-01 14:14 44.23174 -94.50774 24429 ft 439 kts 236°
2026-05-01 14:14 44.21346 -94.54197 24751 ft 441 kts 236°
2026-05-01 14:14 44.19509 -94.57633 25075 ft 443 kts 235°
2026-05-01 14:15 44.17689 -94.61035 25395 ft 445 kts 235°
2026-05-01 14:15 44.15839 -94.64492 25709 ft 446 kts 235°
2026-05-01 14:15 44.13980 -94.67958 26009 ft 448 kts 235°
2026-05-01 14:15 44.12105 -94.71438 26288 ft 450 kts 235°
2026-05-01 14:16 44.10225 -94.74927 26569 ft 451 kts 235°
2026-05-01 14:16 44.08337 -94.78431 26850 ft 453 kts 235°
2026-05-01 14:16 44.06444 -94.81941 27122 ft 455 kts 235°
2026-05-01 14:16 44.04542 -94.85462 27403 ft 456 kts 235°
2026-05-01 14:17 44.02631 -94.88991 27680 ft 458 kts 235°
2026-05-01 14:17 44.00710 -94.92534 27952 ft 459 kts 234°
2026-05-01 14:17 43.98793 -94.96079 28204 ft 461 kts 236°
2026-05-01 14:17 43.96899 -94.99662 28594 ft 457 kts 236°
2026-05-01 14:18 43.95052 -95.03228 29068 ft 453 kts 237°
2026-05-01 14:18 43.93233 -95.06777 29449 ft 450 kts 237°
2026-05-01 14:18 43.91420 -95.10313 29790 ft 449 kts 237°
2026-05-01 14:18 43.90218 -95.12643 30005 ft 448 kts 236°
2026-05-01 14:19 43.87808 -95.17282 30419 ft 447 kts 236°
2026-05-01 14:19 43.85986 -95.20764 30714 ft 446 kts 236°
2026-05-01 14:19 43.84159 -95.24240 30996 ft 446 kts 236°
2026-05-01 14:19 43.82329 -95.27711 31281 ft 446 kts 236°
2026-05-01 14:20 43.80502 -95.31176 31554 ft 445 kts 236°
2026-05-01 14:20 43.76854 -95.38102 32082 ft 445 kts 236°
2026-05-01 14:20 43.75032 -95.41561 32347 ft 445 kts 236°
2026-05-01 14:21 43.73212 -95.45012 32602 ft 444 kts 236°
2026-05-01 14:21 43.71392 -95.48464 32850 ft 444 kts 236°
2026-05-01 14:21 43.69596 -95.51875 33076 ft 444 kts 236°
2026-05-01 14:22 43.65956 -95.58764 33540 ft 444 kts 236°
2026-05-01 14:22 43.64132 -95.62206 33767 ft 444 kts 236°
2026-05-01 14:22 43.62307 -95.65640 34001 ft 443 kts 236°
2026-05-01 14:22 43.60482 -95.69067 34137 ft 443 kts 236°
2026-05-01 14:23 43.56840 -95.75897 34165 ft 441 kts 236°
2026-05-01 14:23 43.53205 -95.82700 34164 ft 440 kts 236°
2026-05-01 14:24 43.49573 -95.89499 34165 ft 440 kts 236°
2026-05-01 14:24 43.45935 -95.96287 34174 ft 440 kts 236°
2026-05-01 14:25 43.42317 -96.03013 34177 ft 440 kts 236°
2026-05-01 14:25 43.38676 -96.09773 34178 ft 440 kts 236°
2026-05-01 14:26 43.33202 -96.19906 34184 ft 439 kts 236°
2026-05-01 14:27 43.29602 -96.26671 34184 ft 437 kts 241°
2026-05-01 14:27 43.26972 -96.34118 34191 ft 433 kts 248°
2026-05-01 14:28 43.23272 -96.45419 34195 ft 432 kts 248°
2026-05-01 14:28 43.20798 -96.52934 34194 ft 432 kts 248°
2026-05-01 14:29 43.18335 -96.60435 34195 ft 431 kts 248°
2026-05-01 14:30 43.13420 -96.75339 34194 ft 430 kts 248°
2026-05-01 14:31 43.09708 -96.86508 34194 ft 429 kts 248°
2026-05-01 14:31 43.07238 -96.93936 34196 ft 429 kts 248°
2026-05-01 14:32 43.04759 -97.01359 34198 ft 429 kts 248°
2026-05-01 14:32 43.02271 -97.08778 34215 ft 429 kts 248°
2026-05-01 14:33 42.99781 -97.16177 34206 ft 429 kts 248°
2026-05-01 14:33 42.97294 -97.23572 34214 ft 428 kts 248°
2026-05-01 14:34 42.94808 -97.30965 34212 ft 428 kts 248°
2026-05-01 14:34 42.92312 -97.38337 34222 ft 428 kts 248°
2026-05-01 14:35 42.89809 -97.45704 34216 ft 428 kts 248°
2026-05-01 14:35 42.87301 -97.53056 34226 ft 428 kts 248°
2026-05-01 14:36 42.84791 -97.60412 34227 ft 428 kts 248°
2026-05-01 14:36 42.82298 -97.67705 34228 ft 427 kts 248°
2026-05-01 14:37 42.79788 -97.75033 34233 ft 427 kts 248°
2026-05-01 14:37 42.77272 -97.82346 34233 ft 426 kts 248°
2026-05-01 14:38 42.74753 -97.89642 34230 ft 426 kts 248°
2026-05-01 14:38 42.72229 -97.96911 34227 ft 425 kts 248°
2026-05-01 14:39 42.69712 -98.04169 34226 ft 424 kts 248°
2026-05-01 14:39 42.67196 -98.11411 34219 ft 424 kts 248°
2026-05-01 14:40 42.64678 -98.18646 34224 ft 424 kts 248°
2026-05-01 14:40 42.62158 -98.25877 34221 ft 424 kts 248°
2026-05-01 14:41 42.59624 -98.33101 34233 ft 424 kts 248°
2026-05-01 14:41 42.57093 -98.40274 34222 ft 424 kts 248°
2026-05-01 14:42 42.54548 -98.47494 34235 ft 424 kts 248°
2026-05-01 14:42 42.52007 -98.54708 34224 ft 424 kts 248°
2026-05-01 14:43 42.49459 -98.61909 34227 ft 424 kts 248°
2026-05-01 14:43 42.46862 -98.69092 34214 ft 426 kts 243°
2026-05-01 14:44 42.44316 -98.74814 34218 ft 427 kts 243°
2026-05-01 14:44 42.39713 -98.85139 34223 ft 427 kts 243°
2026-05-01 14:45 42.35096 -98.95456 34208 ft 428 kts 243°
2026-05-01 14:46 42.32003 -99.02331 34207 ft 429 kts 243°
2026-05-01 14:46 42.27346 -99.12656 34217 ft 429 kts 243°
2026-05-01 14:47 42.24251 -99.19543 34214 ft 428 kts 245°
2026-05-01 14:48 42.21220 -99.30397 34218 ft 422 kts 255°
2026-05-01 14:48 42.18412 -99.41661 34202 ft 422 kts 255°
2026-05-01 14:49 42.14630 -99.56640 34206 ft 421 kts 255°
2026-05-01 14:50 42.10847 -99.71578 34214 ft 421 kts 255°
2026-05-01 14:51 42.08011 -99.82703 34212 ft 420 kts 255°
2026-05-01 14:52 42.05159 -99.93854 34205 ft 419 kts 255°
2026-05-01 14:53 42.02303 -100.04957 34200 ft 419 kts 255°
2026-05-01 14:53 42.00393 -100.12360 34198 ft 419 kts 255°
2026-05-01 14:54 41.98478 -100.19761 34198 ft 419 kts 255°
2026-05-01 14:54 41.96559 -100.27150 34211 ft 418 kts 254°
2026-05-01 14:55 41.94633 -100.34519 34204 ft 418 kts 254°
2026-05-01 14:55 41.92729 -100.41832 34210 ft 417 kts 255°
2026-05-01 14:56 41.90811 -100.49182 34226 ft 417 kts 254°
2026-05-01 14:56 41.88884 -100.56515 34215 ft 416 kts 254°
2026-05-01 14:57 41.86954 -100.63829 34224 ft 415 kts 254°
2026-05-01 14:57 41.84063 -100.74764 34222 ft 414 kts 254°
2026-05-01 14:58 41.82135 -100.82019 34223 ft 413 kts 254°
2026-05-01 14:58 41.80206 -100.89268 34219 ft 412 kts 254°
2026-05-01 14:59 41.78289 -100.96467 34211 ft 412 kts 254°
2026-05-01 14:59 41.76351 -101.03682 34210 ft 412 kts 254°
2026-05-01 15:00 41.73437 -101.14499 34202 ft 411 kts 254°
2026-05-01 15:01 41.71501 -101.21693 34197 ft 411 kts 254°
2026-05-01 15:01 41.69562 -101.28879 34189 ft 411 kts 254°
2026-05-01 15:02 41.67606 -101.36073 34186 ft 412 kts 254°
2026-05-01 15:02 41.65660 -101.43220 34183 ft 412 kts 254°
2026-05-01 15:03 41.63688 -101.50431 34181 ft 413 kts 254°
2026-05-01 15:03 41.61715 -101.57646 34177 ft 414 kts 254°
2026-05-01 15:04 41.59727 -101.64872 34174 ft 414 kts 254°
2026-05-01 15:04 41.57734 -101.72106 34175 ft 415 kts 254°
2026-05-01 15:05 41.55733 -101.79344 34178 ft 416 kts 254°
2026-05-01 15:05 41.53725 -101.86591 34180 ft 416 kts 254°
2026-05-01 15:06 41.51711 -101.93831 34182 ft 416 kts 254°
2026-05-01 15:06 41.49580 -102.01022 34184 ft 420 kts 247°
2026-05-01 15:07 41.46802 -102.07907 34180 ft 421 kts 246°
2026-05-01 15:07 41.44037 -102.14744 34180 ft 422 kts 246°
2026-05-01 15:08 41.41240 -102.21625 34185 ft 422 kts 246°
2026-05-01 15:08 41.38438 -102.28501 34190 ft 422 kts 246°
2026-05-01 15:09 41.35642 -102.35370 34189 ft 422 kts 246°
2026-05-01 15:09 41.32848 -102.42205 34154 ft 425 kts 246°
2026-05-01 15:10 41.29995 -102.49167 34153 ft 427 kts 246°
2026-05-01 15:10 41.25724 -102.59549 34162 ft 429 kts 246°
2026-05-01 15:11 41.21423 -102.69980 34171 ft 429 kts 246°
2026-05-01 15:12 41.18547 -102.76927 34179 ft 429 kts 246°
2026-05-01 15:12 41.14225 -102.87328 34188 ft 429 kts 246°
2026-05-01 15:14 41.07195 -103.04655 34189 ft 426 kts 248°
2026-05-01 15:14 41.03390 -103.15278 34189 ft 426 kts 249°
2026-05-01 15:15 40.98200 -103.29371 34190 ft 425 kts 248°
2026-05-01 15:16 40.92960 -103.43408 34192 ft 425 kts 248°
2026-05-01 15:18 40.86426 -103.60856 34198 ft 424 kts 248°
2026-05-01 15:19 40.81184 -103.74785 34211 ft 423 kts 248°
2026-05-01 15:19 40.77252 -103.85181 34208 ft 421 kts 247°
2026-05-01 15:20 40.73342 -103.95490 34218 ft 420 kts 247°
2026-05-01 15:21 40.70726 -104.02366 34221 ft 419 kts 247°
2026-05-01 15:21 40.68107 -104.09244 34210 ft 420 kts 247°
2026-05-01 15:22 40.64167 -104.19559 34217 ft 420 kts 246°
2026-05-01 15:22 40.61532 -104.26427 34222 ft 420 kts 246°
2026-05-01 15:23 40.58893 -104.33283 34223 ft 420 kts 246°
2026-05-01 15:23 40.56248 -104.40143 34227 ft 420 kts 246°
2026-05-01 15:24 40.53599 -104.46990 34228 ft 420 kts 246°
2026-05-01 15:24 40.50948 -104.53837 34229 ft 420 kts 246°
2026-05-01 15:25 40.48174 -104.60610 34228 ft 422 kts 244°
2026-05-01 15:25 40.45228 -104.67219 34224 ft 422 kts 243°
2026-05-01 15:26 40.42232 -104.73862 34219 ft 423 kts 243°
2026-05-01 15:26 40.39274 -104.80533 34226 ft 423 kts 243°
2026-05-01 15:27 40.36334 -104.87227 34224 ft 424 kts 243°
2026-05-01 15:28 40.31900 -104.97278 34221 ft 425 kts 243°
2026-05-01 15:28 40.28925 -105.03972 34230 ft 425 kts 243°
2026-05-01 15:29 40.24445 -105.14019 34226 ft 426 kts 243°
2026-05-01 15:30 40.18957 -105.26300 34233 ft 427 kts 243°
2026-05-01 15:31 40.09425 -105.47510 34244 ft 427 kts 242°
2026-05-01 15:32 40.03417 -105.60790 34257 ft 425 kts 242°
2026-05-01 15:34 39.94384 -105.80694 34291 ft 424 kts 242°